STARLINK-6371, 57381

Orbit data source: Space-Track

STARLINK-6371, 57381 is a payload satellite owned by SpaceX/Seattle (US) in LEO that was launched on Sun, 16 Jul 2023 UTC via an FALCON 9 launch vehicle from the Air Force Eastern Test Range (AFETR). Payload-class satellites include a variety of spacecraft equipped with specific instruments for various scientific and technological missions. These include communications satellites like Starlink; space stations such as the ISS; scientific satellites like the Hubble; Earth observation satellites from companies like Planet Labs, Umbra, and HawkEye 360; GPS; miniature CubeSats for education and research; and military/defense satellites.

Loading next visibility...
Identifier
57381, 2023-099BF
Orbit
LEO
Country
Flag of USUS
Related business
Manufacturer
SpaceX/Seattle
Mission
Operational Commercial Communications
Bus & Motor
STARLINK, Unknown motor
Mass
305 kg wet, ~290 kg dry
Launch date (UTC)
2023-07-16 (3 years ago)
Launch vehicle
FALCON 9
Launch site
Air Force Eastern Test Range (AFETR)
Object type
Payload
Rocket body
Debris
Shape & HBR
Box + 1 Pan, 10.1 m
Radar Cross Section
11.087 m², Large (>1 m²)

Expand to show TLE details & history
Last TLE update: 3 days ago

TLE from 3 days ago
0 STARLINK-6371
1 57381U 23099BF  26170.53591027  .00000110  00000-0  13523-4 0  9995
2 57381  43.0022   8.5174 0001114 249.8490 110.2242 15.27577796162721
Epoch: 2026-06-19T12:51Z
TLE epoch observation values (Epoch: 2026-06-19T12:51:42.647Z)
Latitude
-0°
Longitude
-92.17378°
Altitude
483.096 km
Speed
7.626 km/s
True Right ascension
00h 34m 04s
True Declination
0° 00' 00"
Sunlit
Object was in daylight at epoch
Visualization orbit readout
Latitude
Unknown
Longitude
Unknown
Altitude
Unknown
Speed
Unknown
Apparent Right ascension
Unknown
Apparent Declination
Unknown
Sunlit
N/A
Visualization observer readout
Local Sidereal Time
21:29:12
Azimuth
Unknown
Elevation
Unknown
Doppler factor
Unknown
Orbital elements
Apogee altitude
485.765 km
Perigee altitude
484.236 km
Semi-major axis
6,863.137 km
Eccentricity
0.00011
Inclination
43.0022°
RAAN
8.5174°
Arg. of periapsis
249.849°
True anomaly
110.23618°
Mean anomaly
110.2242°
Eccentric anomaly
110.23019°
Mean motion
3.81732 °/min
Orbital period
94.31 mins
BSTAR
0.000013523
Loading maneuver chart data...
Computing Atmospheric mass density...
Loading historical data...
Loading historical data...
Loading historical data...
Loading historical data...
Loading historical data...
Loading historical data...
Loading historical data...

Documentation

Showing up to 5 results
|